| time (UTC) | temp F | wind direction | speed knots | gust knots | rain 1hr in | rain 24hr in | rain mn in | humidity % | barometer mb |
| 20260905195834 | 79 | 142 | 1.7 | 2.6 | 0.00 | 0.01 | 0.01 | 83 | 1011.9 |
| 20260905195329 | 79 | 147 | 0.9 | 2.6 | 0.00 | 0.01 | 0.01 | 83 | 1011.8 |
| 20260905194825 | 79 | 145 | 2.6 | 4.3 | 0.00 | 0.01 | 0.01 | 83 | 1012.1 |
| 20260905194325 | 79 | 149 | 1.7 | 1.7 | 0.00 | 0.01 | 0.01 | 84 | 1011.9 |
| 20260905193824 | 79 | 146 | 1.7 | 2.6 | 0.00 | 0.01 | 0.01 | 83 | 1011.9 |
| 20260905193319 | 80 | 129 | 3.5 | 5.2 | 0.00 | 0.01 | 0.01 | 83 | 1012.2 |
| 20260905192815 | 79 | 148 | 0.9 | 1.7 | 0.00 | 0.01 | 0.01 | 84 | 1012.1 |
| 20260905192311 | 80 | 148 | 0.9 | 1.7 | 0.00 | 0.01 | 0.01 | 83 | 1012.2 |
| 20260905191810 | 80 | 146 | 0.9 | 1.7 | 0.00 | 0.01 | 0.01 | 83 | 1011.9 |
| 20260905191308 | 80 | 149 | 0.9 | 4.3 | 0.00 | 0.01 | 0.01 | 83 | 1012.3 |
| 20260905190807 | 80 | 147 | 0.9 | 1.7 | 0.00 | 0.01 | 0.01 | 82 | 1012.1 |
| 20260905190301 | 81 | 148 | 0.9 | 2.6 | 0.00 | 0.01 | 0.01 | 82 | 1012.2 |
| 20260905185800 | 80 | 162 | 0.0 | 1.7 | 0.00 | 0.01 | 0.01 | 82 | 1012.3 |
| 20260905185254 | 81 | 162 | 1.7 | 4.3 | 0.00 | 0.01 | 0.01 | 81 | 1011.9 |
| 20260905184748 | 82 | 160 | 1.7 | 4.3 | 0.00 | 0.01 | 0.01 | 81 | 1012.2 |
| 20260905184247 | 82 | 161 | 2.6 | 2.6 | 0.00 | 0.01 | 0.01 | 79 | 1012.1 |
| 20260905183741 | 83 | 148 | 0.0 | 1.7 | 0.00 | 0.01 | 0.01 | 78 | 1012.2 |
| 20260905183237 | 82 | 149 | 1.7 | 2.6 | 0.00 | 0.01 | 0.01 | 79 | 1012.4 |
| 20260905182736 | 82 | 147 | 0.9 | 1.7 | 0.00 | 0.01 | 0.01 | 79 | 1012.3 |
| 20260905182236 | 83 | 149 | 0.9 | 2.6 | 0.00 | 0.01 | 0.01 | 78 | 1012.2 |
| 20260905181732 | 83 | 145 | 0.9 | 1.7 | 0.00 | 0.01 | 0.01 | 79 | 1012.3 |
| 20260905181231 | 83 | 149 | 1.7 | 6.1 | 0.00 | 0.01 | 0.01 | 78 | 1012.2 |
| 20260905180726 | 83 | 149 | 0.0 | 4.3 | 0.00 | 0.01 | 0.01 | 79 | 1012.1 |
| 20260905180220 | 82 | 145 | 2.6 | 4.3 | 0.00 | 0.01 | 0.01 | 79 | 1012.1 |
| 20260905175715 | 82 | 147 | 0.9 | 2.6 | 0.00 | 0.01 | 0.01 | 79 | 1012.1 |
| 20260905175209 | 83 | 143 | 3.5 | 4.3 | 0.00 | 0.01 | 0.01 | 78 | 1012.2 |
| 20260905174705 | 82 | 147 | 1.7 | 2.6 | 0.00 | 0.01 | 0.01 | 79 | 1011.9 |
| 20260905174201 | 82 | 149 | 2.6 | 4.3 | 0.00 | 0.01 | 0.01 | 81 | 1011.9 |
| 20260905173657 | 84 | 147 | 1.7 | 2.6 | 0.00 | 0.01 | 0.01 | 78 | 1011.9 |
| 20260905173152 | 85 | 147 | 1.7 | 2.6 | 0.00 | 0.01 | 0.01 | 77 | 1011.9 |
| 20260905172651 | 84 | 147 | 0.9 | 2.6 | 0.00 | 0.01 | 0.01 | 78 | 1011.8 |
| 20260905172145 | 84 | 149 | 1.7 | 5.2 | 0.00 | 0.01 | 0.01 | 77 | 1012.1 |
| 20260905171641 | 84 | 138 | 1.7 | 4.3 | 0.00 | 0.01 | 0.01 | 78 | 1011.8 |
| 20260905171137 | 83 | 147 | 0.0 | 2.6 | 0.00 | 0.01 | 0.01 | 79 | 1011.9 |
| 20260905170634 | 83 | 147 | 0.9 | 4.3 | 0.00 | 0.01 | 0.01 | 79 | 1011.8 |
| 20260905170129 | 85 | 147 | 2.6 | 4.3 | 0.00 | 0.01 | 0.01 | 76 | 1012.1 |
| 20260905165623 | 86 | 148 | 1.7 | 1.7 | 0.00 | 0.01 | 0.01 | 75 | 1012.1 |
| 20260905165119 | 85 | 148 | 0.9 | 1.7 | 0.00 | 0.01 | 0.01 | 77 | 1011.9 |
| 20260905164614 | 86 | 150 | 2.6 | 2.6 | 0.00 | 0.01 | 0.01 | 74 | 1012.2 |
| 20260905164113 | 84 | 149 | 0.9 | 1.7 | 0.00 | 0.01 | 0.01 | 77 | 1011.9 |
| 20260905163609 | 83 | 147 | 1.7 | 4.3 | 0.00 | 0.01 | 0.01 | 78 | 1012.2 |
| 20260905163106 | 83 | 168 | 0.9 | 4.3 | 0.00 | 0.01 | 0.01 | 79 | 1012.4 |
| 20260905162602 | 83 | 149 | 0.9 | 2.6 | 0.00 | 0.01 | 0.01 | 78 | 1012.4 |
| 20260905162101 | 83 | 150 | 1.7 | 4.3 | 0.00 | 0.01 | 0.01 | 79 | 1011.9 |
| 20260905161555 | 83 | 149 | 0.9 | 1.7 | 0.00 | 0.01 | 0.01 | 78 | 1012.2 |
| 20260905161053 | 82 | 149 | 0.9 | 1.7 | 0.00 | 0.01 | 0.01 | 81 | 1012.3 |
| 20260905160552 | 82 | 148 | 0.9 | 2.6 | 0.00 | 0.01 | 0.01 | 81 | 1012.3 |
| 20260905160052 | 81 | 147 | 0.9 | 1.7 | 0.00 | 0.01 | 0.01 | 82 | 1012.2 |
| 20260905155552 | 82 | 147 | 1.7 | 2.6 | 0.00 | 0.01 | 0.01 | 82 | 1012.2 |
| 20260905155050 | 82 | 147 | 2.6 | 2.6 | 0.00 | 0.01 | 0.01 | 82 | 1012.1 |
| 20260905154545 | 83 | 140 | 2.6 | 2.6 | 0.00 | 0.01 | 0.01 | 81 | 1012.2 |
| 20260905154041 | 82 | 148 | 0.9 | 1.7 | 0.00 | 0.01 | 0.01 | 83 | 1011.8 |
| 20260905153537 | 80 | 151 | 1.7 | 4.3 | 0.00 | 0.01 | 0.01 | 84 | 1012.2 |
| 20260905153037 | 81 | 151 | 0.9 | 4.3 | 0.00 | 0.01 | 0.01 | 83 | 1012.1 |
| 20260905152531 | 81 | 150 | 0.9 | 2.6 | 0.00 | 0.01 | 0.01 | 83 | 1011.8 |
| 20260905152027 | 81 | 150 | 0.9 | 2.6 | 0.00 | 0.01 | 0.01 | 83 | 1011.7 |
| 20260905151522 | 81 | 150 | 1.7 | 7.8 | 0.00 | 0.01 | 0.01 | 83 | 1011.8 |
| 20260905151017 | 81 | 149 | 1.7 | 2.6 | 0.00 | 0.01 | 0.01 | 83 | 1011.8 |
| 20260905150512 | 80 | 148 | 0.0 | 1.7 | 0.00 | 0.01 | 0.01 | 86 | 1011.5 |
| 20260905150010 | 79 | 149 | 1.7 | 2.6 | 0.00 | 0.01 | 0.01 | 87 | 1011.7 |
| 20260905145509 | 79 | 149 | 2.6 | 2.6 | 0.00 | 0.01 | 0.01 | 87 | 1011.4 |
| 20260905145003 | 79 | 152 | 4.3 | 7.0 | 0.00 | 0.01 | 0.01 | 86 | 1011.3 |
| 20260905144458 | 79 | 156 | 2.6 | 4.3 | 0.00 | 0.01 | 0.01 | 86 | 1011.6 |
| 20260905143957 | 78 | 148 | 0.9 | 6.1 | 0.00 | 0.01 | 0.01 | 88 | 1011.4 |
| 20260905143456 | 78 | 160 | 2.6 | 5.2 | 0.00 | 0.01 | 0.01 | 88 | 1011.5 |
| 20260905142951 | 78 | 148 | 0.9 | 2.6 | 0.00 | 0.01 | 0.01 | 89 | 1011.3 |
| 20260905142450 | 78 | 149 | 0.0 | 2.6 | 0.00 | 0.01 | 0.01 | 90 | 1011.5 |
| 20260905141945 | 77 | 150 | 1.7 | 1.7 | 0.00 | 0.01 | 0.01 | 91 | 1011.6 |
| 20260905141440 | 77 | 149 | 2.6 | 2.6 | 0.00 | 0.01 | 0.01 | 92 | 1011.4 |
| 20260905140936 | 75 | 149 | 0.9 | 2.6 | 0.00 | 0.01 | 0.01 | 95 | 1011.3 |
| 20260905140431 | 75 | 150 | 0.0 | 1.7 | 0.00 | 0.01 | 0.01 | 96 | 1011.5 |
| 20260905135930 | 74 | 109 | 1.7 | 2.6 | 0.00 | 0.01 | 0.01 | 97 | 1011.5 |
| 20260905135426 | 74 | 149 | 1.7 | 2.6 | 0.00 | 0.01 | 0.01 | 97 | 1011.3 |
| 20260905134921 | 74 | 148 | 0.9 | 2.6 | 0.00 | 0.01 | 0.01 | 97 | 1011.2 |
| 20260905134420 | 74 | 147 | 0.0 | 0.9 | 0.00 | 0.01 | 0.01 | 98 | 1011.4 |
| 20260905133915 | 74 | 136 | 0.9 | 2.6 | 0.00 | 0.01 | 0.01 | 98 | 1011.3 |
| 20260905133415 | 74 | 148 | 0.0 | 2.6 | 0.00 | 0.01 | 0.01 | 98 | 1011.1 |
| 20260905132914 | 75 | 147 | 0.9 | 1.7 | 0.00 | 0.01 | 0.01 | 98 | 1011.5 |
| 20260905132410 | 74 | 148 | 0.0 | 1.7 | 0.00 | 0.01 | 0.01 | 99 | 1011.3 |
| 20260905131905 | 74 | 149 | 1.7 | 2.6 | 0.00 | 0.01 | 0.01 | 99 | 1011.4 |
| 20260905131400 | 74 | 150 | 1.7 | 2.6 | 0.00 | 0.01 | 0.01 | 99 | 1011.6 |
| 20260905130855 | 74 | 149 | 1.7 | 2.6 | 0.00 | 0.01 | 0.01 | 99 | 1011.6 |
| 20260905130354 | 74 | 149 | 0.9 | 2.6 | 0.00 | 0.01 | 0.01 | 99 | 1011.2 |
| 20260905125849 | 75 | 149 | 2.6 | 2.6 | 0.00 | 0.01 | 0.01 | 99 | 1010.8 |
| 20260905125344 | 75 | 150 | 0.9 | 1.7 | 0.00 | 0.01 | 0.01 | 99 | 1010.7 |
| 20260905124840 | 75 | 149 | 0.0 | 0.9 | 0.00 | 0.01 | 0.01 | 99 | 1010.6 |
| 20260905124336 | 74 | 150 | 0.0 | 0.9 | 0.00 | 0.01 | 0.01 | 99 | 1010.6 |
| 20260905123836 | 74 | 149 | 0.0 | 0.9 | 0.00 | 0.01 | 0.01 | 99 | 1010.4 |
| 20260905123333 | 74 | 145 | 0.9 | 0.9 | 0.00 | 0.01 | 0.01 | 99 | 1010.5 |
| 20260905122833 | 74 | 149 | 0.0 | 1.7 | 0.00 | 0.01 | 0.01 | 99 | 1010.6 |
| 20260905122332 | 74 | 149 | 0.9 | 0.9 | 0.00 | 0.01 | 0.01 | 99 | 1010.5 |
| 20260905121827 | 74 | 150 | 0.0 | 0.9 | 0.00 | 0.01 | 0.01 | 99 | 1010.4 |
| 20260905121324 | 74 | 150 | 0.0 | 0.0 | 0.00 | 0.01 | 0.01 | 99 | 1010.7 |
| 20260905120822 | 74 | 149 | 0.0 | 0.0 | 0.00 | 0.01 | 0.01 | 99 | 1010.5 |
| 20260905120317 | 74 | 147 | 0.0 | 0.0 | 0.00 | 0.01 | 0.01 | 99 | 1010.2 |
| 20260905115812 | 74 | 149 | 0.0 | 0.0 | 0.00 | 0.01 | 0.01 | 99 | 1010.4 |
| 20260905115312 | 74 | 148 | 0.0 | 0.0 | 0.00 | 0.01 | 0.01 | 99 | 1010.4 |
| 20260905114812 | 74 | 147 | 0.0 | 0.0 | 0.00 | 0.01 | 0.01 | 99 | 1010.3 |
| 20260905114311 | 74 | 151 | 0.0 | 0.0 | 0.00 | 0.01 | 0.01 | 99 | 1010.2 |
| 20260905113810 | 74 | 147 | 0.0 | 0.0 | 0.00 | 0.01 | 0.01 | 99 | 1010.0 |
| 20260905113306 | 74 | 146 | 0.0 | 0.0 | 0.00 | 0.01 | 0.01 | 99 | 1010.0 |
| 20260905112801 | 74 | 186 | 0.0 | 0.0 | 0.00 | 0.01 | 0.01 | 99 | 1010.0 |
| 20260905112256 | 75 | 147 | 0.0 | 0.0 | 0.00 | 0.01 | 0.01 | 99 | 1009.9 |
| 20260905111750 | 75 | 183 | 0.0 | 0.0 | 0.00 | 0.01 | 0.01 | 99 | 1009.8 |
| 20260905111245 | 75 | 148 | 0.0 | 0.0 | 0.00 | 0.01 | 0.01 | 99 | 1009.8 |
| 20260905110744 | 75 | 147 | 0.0 | 0.9 | 0.00 | 0.01 | 0.01 | 99 | 1009.8 |
| 20260905110238 | 75 | 146 | 0.0 | 0.9 | 0.00 | 0.01 | 0.01 | 99 | 1009.7 |
| 20260905105734 | 75 | 148 | 0.9 | 0.9 | 0.00 | 0.01 | 0.01 | 99 | 1009.7 |
| 20260905105233 | 76 | 149 | 0.9 | 1.7 | 0.00 | 0.01 | 0.01 | 99 | 1009.6 |
| 20260905104728 | 75 | 149 | 0.0 | 0.0 | 0.00 | 0.01 | 0.01 | 99 | 1009.5 |
| 20260905104224 | 75 | 147 | 0.0 | 0.0 | 0.00 | 0.01 | 0.01 | 99 | 1009.5 |
| 20260905103719 | 75 | 162 | 0.0 | 0.0 | 0.00 | 0.01 | 0.01 | 99 | 1009.5 |
| 20260905103215 | 75 | 151 | 0.0 | 0.0 | 0.00 | 0.01 | 0.01 | 99 | 1009.6 |
| 20260905102710 | 75 | 149 | 0.0 | 0.0 | 0.00 | 0.01 | 0.01 | 99 | 1009.7 |
| 20260905102207 | 75 | 186 | 0.0 | 0.0 | 0.00 | 0.01 | 0.01 | 99 | 1009.4 |
| 20260905101706 | 75 | 149 | 0.0 | 0.0 | 0.00 | 0.01 | 0.01 | 99 | 1009.6 |
| 20260905101204 | 76 | 149 | 0.0 | 0.0 | 0.00 | 0.01 | 0.01 | 99 | 1009.4 |
| 20260905100701 | 76 | 147 | 0.0 | 0.0 | 0.00 | 0.01 | 0.01 | 99 | 1009.5 |
| 20260905100155 | 76 | 147 | 0.0 | 0.0 | 0.00 | 0.01 | 0.01 | 99 | 1009.6 |
| 20260905095654 | 76 | 147 | 0.0 | 0.0 | 0.00 | 0.01 | 0.01 | 99 | 1009.5 |
| 20260905095149 | 76 | 152 | 0.0 | 0.0 | 0.00 | 0.01 | 0.01 | 99 | 1009.4 |
| 20260905094644 | 76 | 147 | 0.0 | 0.0 | 0.00 | 0.01 | 0.01 | 99 | 1009.5 |
| 20260905094143 | 76 | 147 | 0.0 | 0.0 | 0.00 | 0.01 | 0.01 | 99 | 1009.5 |
| 20260905093638 | 76 | 145 | 0.0 | 0.0 | 0.00 | 0.01 | 0.01 | 99 | 1009.7 |
| 20260905093135 | 76 | 147 | 0.0 | 0.0 | 0.00 | 0.01 | 0.01 | 99 | 1009.6 |
| 20260905092634 | 76 | 151 | 0.0 | 0.0 | 0.00 | 0.01 | 0.01 | 99 | 1009.7 |
| 20260905092130 | 76 | 147 | 0.0 | 0.0 | 0.00 | 0.01 | 0.01 | 99 | 1009.5 |
| 20260905091630 | 76 | 148 | 0.0 | 0.0 | 0.00 | 0.01 | 0.01 | 99 | 1009.3 |
| 20260905091130 | 76 | 147 | 0.0 | 0.0 | 0.00 | 0.01 | 0.01 | 99 | 1009.5 |
| 20260905090625 | 76 | 147 | 0.0 | 0.0 | 0.00 | 0.01 | 0.01 | 99 | 1009.3 |
| 20260905090120 | 76 | 147 | 0.0 | 0.0 | 0.00 | 0.01 | 0.01 | 99 | 1009.6 |
| 20260905085619 | 76 | 186 | 0.0 | 0.0 | 0.00 | 0.01 | 0.01 | 99 | 1009.4 |
| 20260905085114 | 76 | 151 | 0.0 | 0.0 | 0.07 | 0.01 | 0.01 | 99 | 1009.4 |
| 20260905084614 | 76 | 147 | 0.0 | 0.0 | 0.07 | 0.01 | 0.01 | 99 | 1009.6 |
| 20260905084109 | 76 | 147 | 0.0 | 0.0 | 0.00 | 0.00 | 0.00 | 99 | 1009.6 |
| 20260905083603 | 75 | 145 | 0.0 | 0.0 | 0.00 | 0.00 | 0.00 | 99 | 1009.3 |
| 20260905083100 | 75 | 147 | 0.0 | 0.0 | 0.00 | 0.00 | 0.00 | 99 | 1009.6 |
| 20260905082555 | 75 | 147 | 0.0 | 0.0 | 0.00 | 0.00 | 0.00 | 99 | 1009.4 |
| 20260905082051 | 75 | 186 | 0.0 | 0.0 | 0.00 | 0.00 | 0.00 | 99 | 1009.6 |
| 20260905081550 | 76 | 152 | 0.0 | 0.0 | 0.00 | 0.00 | 0.00 | 99 | 1009.6 |
| 20260905081045 | 75 | 162 | 0.0 | 0.0 | 0.00 | 0.00 | 0.00 | 99 | 1009.5 |
| 20260905080544 | 75 | 147 | 0.0 | 0.0 | 0.00 | 0.00 | 0.00 | 99 | 1009.5 |
| 20260905080039 | 75 | 147 | 0.0 | 0.0 | 0.00 | 0.00 | 0.00 | 99 | 1009.4 |
| 20260905075533 | 76 | 149 | 0.0 | 0.0 | 0.00 | 0.00 | 0.00 | 99 | 1009.2 |
| 20260905075033 | 76 | 152 | 0.0 | 0.0 | 0.00 | 0.00 | 0.00 | 99 | 1009.6 |
| 20260905074527 | 76 | 147 | 0.0 | 0.0 | 0.00 | 0.00 | 0.00 | 99 | 1009.5 |
| 20260905074023 | 76 | 147 | 0.0 | 0.0 | 0.00 | 0.00 | 0.00 | 99 | 1009.5 |
| 20260905073518 | 76 | 186 | 0.0 | 0.0 | 0.00 | 0.00 | 0.00 | 99 | 1009.5 |
| 20260905073014 | 76 | 147 | 0.0 | 0.0 | 0.00 | 0.00 | 0.00 | 99 | 1009.6 |
| 20260905072513 | 76 | 163 | 0.0 | 0.0 | 0.00 | 0.00 | 0.00 | 98 | 1009.7 |
| 20260905072009 | 76 | 152 | 0.0 | 0.0 | 0.00 | 0.00 | 0.00 | 98 | 1009.8 |
| 20260905071506 | 77 | 129 | 0.0 | 0.0 | 0.00 | 0.00 | 0.00 | 98 | 1009.6 |
| 20260905071000 | 77 | 103 | 0.0 | 0.0 | 0.00 | 0.00 | 0.00 | 98 | 1009.8 |
| 20260905070456 | 77 | 147 | 0.0 | 0.0 | 0.00 | 0.00 | 0.00 | 97 | 1009.8 |
| 20260905065955 | 77 | 147 | 0.0 | 0.0 | 0.00 | 0.00 | 0.00 | 97 | 1009.8 |
| 20260905065454 | 77 | 147 | 0.0 | 0.0 | 0.00 | 0.00 | 0.00 | 97 | 1009.8 |
| 20260905064949 | 77 | 149 | 0.0 | 0.0 | 0.00 | 0.00 | 0.00 | 97 | 1009.7 |
| 20260905064444 | 77 | 147 | 0.0 | 0.0 | 0.00 | 0.00 | 0.00 | 97 | 1009.7 |
| 20260905063939 | 77 | 145 | 0.0 | 0.0 | 0.00 | 0.00 | 0.00 | 96 | 1009.6 |
| 20260905063434 | 78 | 147 | 0.0 | 0.0 | 0.00 | 0.00 | 0.00 | 96 | 1009.7 |
| 20260905062930 | 78 | 147 | 0.0 | 0.0 | 0.00 | 0.00 | 0.00 | 96 | 1009.9 |
| 20260905062430 | 78 | 149 | 0.0 | 0.0 | 0.00 | 0.00 | 0.00 | 96 | 1009.8 |
| 20260905061925 | 78 | 143 | 0.0 | 0.0 | 0.00 | 0.00 | 0.00 | 95 | 1009.9 |
| 20260905061419 | 78 | 147 | 0.0 | 0.0 | 0.00 | 0.00 | 0.00 | 95 | 1009.9 |
| 20260905060918 | 78 | 163 | 0.0 | 0.0 | 0.00 | 0.00 | 0.00 | 94 | 1010.1 |
| 20260905060415 | 79 | 147 | 0.0 | 0.0 | 0.00 | 0.00 | 0.00 | 94 | 1010.1 |
| 20260905055914 | 79 | 149 | 0.0 | 0.0 | 0.00 | 0.00 | 0.00 | 94 | 1010.0 |
| 20260905055409 | 79 | 147 | 0.0 | 1.7 | 0.00 | 0.00 | 0.00 | 94 | 1009.7 |
| 20260905054908 | 79 | 148 | 0.0 | 0.0 | 0.00 | 0.00 | 0.00 | 94 | 1010.1 |
| 20260905054404 | 79 | 147 | 0.0 | 0.0 | 0.00 | 0.00 | 0.00 | 94 | 1010.0 |
| 20260905053904 | 79 | 143 | 0.0 | 0.0 | 0.00 | 0.00 | 0.00 | 93 | 1010.1 |
| 20260905053359 | 80 | 152 | 0.0 | 0.0 | 0.00 | 0.00 | 0.00 | 93 | 1010.0 |
| 20260905052855 | 80 | 147 | 0.0 | 0.0 | 0.00 | 0.00 | 0.00 | 92 | 1009.8 |
| 20260905052354 | 80 | 149 | 0.0 | 0.0 | 0.00 | 0.00 | 0.00 | 92 | 1009.8 |
| 20260905051854 | 80 | 149 | 0.0 | 0.0 | 0.00 | 0.00 | 0.00 | 92 | 1010.1 |
| 20260905051350 | 80 | 148 | 0.0 | 0.0 | 0.00 | 0.00 | 0.00 | 92 | 1009.9 |
| 20260905050847 | 80 | 147 | 0.0 | 0.0 | 0.00 | 0.00 | 0.00 | 91 | 1009.8 |
| 20260905050343 | 80 | 149 | 0.0 | 0.0 | 0.00 | 0.00 | 0.00 | 91 | 1010.1 |
| 20260905045843 | 80 | 148 | 0.0 | 0.0 | 0.00 | 0.00 | 0.00 | 91 | 1010.0 |
| 20260905045338 | 81 | 147 | 0.0 | 0.0 | 0.00 | 0.00 | 0.00 | 90 | 1009.8 |
| 20260905044833 | 81 | 148 | 0.0 | 0.0 | 0.00 | 0.00 | 0.00 | 90 | 1009.7 |
| 20260905044329 | 81 | 147 | 0.0 | 0.9 | 0.00 | 0.00 | 0.00 | 89 | 1009.8 |
| 20260905043827 | 81 | 147 | 0.0 | 1.7 | 0.00 | 0.00 | 0.00 | 89 | 1009.7 |
| 20260905043322 | 82 | 145 | 0.0 | 0.9 | 0.00 | 0.00 | 0.00 | 89 | 1009.8 |
| 20260905042817 | 82 | 139 | 0.9 | 1.7 | 0.00 | 0.00 | 0.00 | 88 | 1009.7 |
| 20260905042316 | 82 | 145 | 0.9 | 1.7 | 0.00 | 0.00 | 0.00 | 88 | 1009.7 |
| 20260905041812 | 82 | 152 | 0.0 | 0.9 | 0.00 | 0.00 | 0.00 | 88 | 1010.0 |
| 20260905041308 | 82 | 143 | 0.9 | 0.9 | 0.00 | 0.00 | 0.00 | 87 | 1009.7 |
| 20260905040803 | 82 | 153 | 0.0 | 1.7 | 0.00 | 0.00 | 0.00 | 87 | 1009.9 |
| 20260905040302 | 82 | 145 | 0.9 | 1.7 | 0.00 | 0.00 | 0.00 | 87 | 1009.8 |
| 20260905035756 | 82 | 145 | 1.7 | 2.6 | 0.00 | 0.00 | 0.00 | 87 | 1009.7 |
| 20260905035252 | 82 | 145 | 0.9 | 1.7 | 0.00 | 0.00 | 0.00 | 87 | 1009.9 |
| 20260905034749 | 82 | 147 | 0.0 | 0.9 | 0.00 | 0.00 | 0.00 | 88 | 1010.0 |
| 20260905034248 | 82 | 144 | 0.0 | 4.3 | 0.00 | 0.00 | 0.00 | 87 | 1009.8 |
| 20260905033747 | 80 | 147 | 0.0 | 0.9 | 0.00 | 0.00 | 0.00 | 91 | 1009.9 |
| 20260905033243 | 80 | 153 | 0.0 | 0.0 | 0.00 | 0.00 | 0.00 | 93 | 1010.4 |
| 20260905032742 | 79 | 147 | 0.0 | 0.0 | 0.00 | 0.00 | 0.00 | 94 | 1010.3 |
| 20260905032238 | 79 | 147 | 0.0 | 0.0 | 0.00 | 0.00 | 0.00 | 95 | 1010.2 |
| 20260905031732 | 80 | 147 | 0.0 | 0.0 | 0.00 | 0.00 | 0.00 | 95 | 1010.3 |
| 20260905031229 | 80 | 147 | 0.0 | 0.0 | 0.00 | 0.00 | 0.00 | 94 | 1010.3 |
| 20260905030723 | 80 | 139 | 0.0 | 0.0 | 0.00 | 0.00 | 0.00 | 93 | 1010.3 |
| 20260905030218 | 80 | 127 | 0.0 | 0.0 | 0.00 | 0.00 | 0.00 | 93 | 1010.7 |
| 20260905025713 | 80 | 153 | 0.0 | 0.0 | 0.00 | 0.00 | 0.00 | 93 | 1010.7 |
| 20260905025209 | 80 | 145 | 0.0 | 0.0 | 0.00 | 0.00 | 0.00 | 92 | 1010.6 |
| 20260905024704 | 80 | 139 | 0.0 | 0.0 | 0.00 | 0.00 | 0.00 | 92 | 1010.4 |
| 20260905024200 | 81 | 153 | 0.0 | 0.0 | 0.00 | 0.00 | 0.00 | 91 | 1010.6 |
| 20260905023654 | 81 | 192 | 0.0 | 0.0 | 0.00 | 0.00 | 0.00 | 91 | 1010.4 |
| 20260905023149 | 81 | 147 | 0.0 | 0.0 | 0.00 | 0.00 | 0.00 | 91 | 1010.4 |
| 20260905022648 | 81 | 149 | 0.0 | 0.0 | 0.00 | 0.00 | 0.00 | 90 | 1010.4 |
| 20260905022144 | 81 | 147 | 0.0 | 0.0 | 0.00 | 0.00 | 0.00 | 90 | 1010.2 |
| 20260905021643 | 81 | 149 | 0.0 | 0.0 | 0.00 | 0.00 | 0.00 | 90 | 1010.4 |
| 20260905021139 | 81 | 147 | 0.0 | 0.0 | 0.00 | 0.00 | 0.00 | 89 | 1010.2 |
| 20260905020633 | 81 | 152 | 0.0 | 0.0 | 0.00 | 0.00 | 0.00 | 89 | 1010.0 |
| 20260905020128 | 82 | 149 | 0.0 | 0.0 | 0.00 | 0.00 | 0.00 | 89 | 1009.9 |
| 20260905015627 | 82 | 146 | 0.0 | 0.0 | 0.00 | 0.00 | 0.00 | 88 | 1010.0 |
| 20260905015121 | 82 | 192 | 0.0 | 0.0 | 0.00 | 0.00 | 0.00 | 88 | 1010.0 |
| 20260905014615 | 82 | 147 | 0.0 | 0.0 | 0.00 | 0.00 | 0.00 | 88 | 1010.0 |
| 20260905014111 | 82 | 147 | 0.0 | 0.9 | 0.00 | 0.00 | 0.00 | 88 | 1010.0 |
| 20260905013608 | 82 | 147 | 0.0 | 0.0 | 0.00 | 0.00 | 0.00 | 88 | 1009.6 |
| 20260905013103 | 82 | 147 | 0.0 | 0.0 | 0.00 | 0.00 | 0.00 | 88 | 1009.7 |
| 20260905012602 | 82 | 192 | 0.0 | 0.0 | 0.00 | 0.00 | 0.00 | 87 | 1009.6 |
| 20260905012100 | 82 | 192 | 0.0 | 0.0 | 0.00 | 0.00 | 0.00 | 87 | 1009.6 |
| 20260905011555 | 83 | 147 | 0.0 | 0.0 | 0.00 | 0.00 | 0.00 | 86 | 1009.4 |
| 20260905011051 | 83 | 147 | 0.0 | 0.0 | 0.00 | 0.00 | 0.00 | 86 | 1009.6 |
| 20260905010550 | 84 | 147 | 0.0 | 0.0 | 0.00 | 0.00 | 0.00 | 84 | 1009.7 |
| 20260905010047 | 84 | 134 | 0.0 | 0.0 | 0.00 | 0.00 | 0.00 | 83 | 1009.4 |
| 20260905005542 | 84 | 107 | 0.0 | 0.0 | 0.00 | 0.00 | 0.00 | 83 | 1009.2 |
| 20260905005038 | 85 | 104 | 0.0 | 0.0 | 0.00 | 0.00 | 0.00 | 82 | 1009.3 |
| 20260905004532 | 85 | 107 | 0.0 | 0.0 | 0.00 | 0.00 | 0.00 | 81 | 1009.2 |
| 20260905004027 | 86 | 101 | 0.0 | 0.9 | 0.00 | 0.00 | 0.00 | 80 | 1009.3 |
| 20260905003523 | 87 | 128 | 0.9 | 1.7 | 0.00 | 0.00 | 0.00 | 77 | 1009.1 |
| 20260905003019 | 87 | 101 | 0.0 | 0.9 | 0.00 | 0.00 | 0.00 | 77 | 1009.4 |
| 20260905002514 | 87 | 208 | 0.9 | 2.6 | 0.00 | 0.00 | 0.00 | 75 | 1009.1 |
| 20260905002008 | 88 | 200 | 0.9 | 2.6 | 0.00 | 0.00 | 0.00 | 74 | 1009.1 |
| 20260905001503 | 88 | 138 | 2.6 | 4.3 | 0.00 | 0.00 | 0.00 | 74 | 1009.2 |
| 20260905000957 | 87 | 110 | 0.9 | 2.6 | 0.00 | 0.00 | 0.00 | 74 | 1009.4 |
| 20260905000454 | 87 | 121 | 0.0 | 0.0 | 0.00 | 0.00 | 0.00 | 76 | 1008.9 |
| 20260904235949 | 87 | 180 | 0.9 | 1.7 | 0.00 | 0.00 | 0.00 | 75 | 1009.0 |
| 20260904235444 | 88 | 168 | 2.6 | 2.6 | 0.00 | 0.00 | 0.00 | 75 | 1009.0 |
| 20260904234944 | 88 | 191 | 2.6 | 2.6 | 0.00 | 0.00 | 0.00 | 74 | 1009.3 |
| 20260904234443 | 88 | 191 | 1.7 | 2.6 | 0.00 | 0.00 | 0.00 | 74 | 1009.2 |
| 20260904233940 | 88 | 271 | 1.7 | 2.6 | 0.00 | 0.00 | 0.00 | 74 | 1009.0 |
| 20260904233435 | 89 | 167 | 1.7 | 2.6 | 0.00 | 0.00 | 0.00 | 74 | 1009.1 |
| 20260904232931 | 89 | 154 | 0.9 | 2.6 | 0.00 | 0.00 | 0.00 | 74 | 1009.1 |
| 20260904232427 | 89 | 205 | 2.6 | 2.6 | 0.00 | 0.00 | 0.00 | 74 | 1009.0 |
| 20260904231924 | 89 | 119 | 0.9 | 1.7 | 0.00 | 0.00 | 0.00 | 74 | 1009.2 |
| 20260904231424 | 89 | 142 | 0.9 | 1.7 | 0.00 | 0.00 | 0.00 | 73 | 1009.4 |
| 20260904230919 | 89 | 166 | 0.9 | 0.9 | 0.00 | 0.00 | 0.00 | 74 | 1009.3 |
| 20260904230418 | 90 | 145 | 0.9 | 2.6 | 0.00 | 0.00 | 0.00 | 72 | 1009.4 |
| 20260904225913 | 90 | 159 | 2.6 | 4.3 | 0.00 | 0.00 | 0.00 | 71 | 1009.5 |
| 20260904225411 | 90 | 176 | 1.7 | 4.3 | 0.00 | 0.00 | 0.00 | 72 | 1009.4 |
| 20260904224905 | 90 | 306 | 0.9 | 1.7 | 0.00 | 0.00 | 0.00 | 72 | 1009.2 |
| 20260904224401 | 91 | 156 | 0.9 | 1.7 | 0.00 | 0.00 | 0.00 | 72 | 1009.3 |
| 20260904223855 | 91 | 150 | 0.9 | 4.3 | 0.00 | 0.00 | 0.00 | 71 | 1009.3 |
| 20260904223354 | 91 | 159 | 1.7 | 4.3 | 0.00 | 0.00 | 0.00 | 69 | 1009.5 |
| 20260904222850 | 92 | 141 | 4.3 | 6.1 | 0.00 | 0.00 | 0.00 | 68 | 1009.5 |
| 20260904222345 | 92 | 162 | 1.7 | 2.6 | 0.00 | 0.00 | 0.00 | 68 | 1009.3 |
| 20260904221845 | 93 | 297 | 2.6 | 5.2 | 0.00 | 0.00 | 0.00 | 67 | 1009.3 |
| 20260904221340 | 94 | 102 | 0.0 | 2.6 | 0.00 | 0.00 | 0.00 | 66 | 1009.3 |
| 20260904220835 | 93 | 121 | 1.7 | 4.3 | 0.00 | 0.00 | 0.00 | 66 | 1009.3 |
| 20260904220334 | 94 | 158 | 1.7 | 1.7 | 0.00 | 0.00 | 0.00 | 64 | 1009.5 |
| 20260904215830 | 93 | 119 | 0.9 | 1.7 | 0.00 | 0.00 | 0.00 | 66 | 1009.4 |
| 20260904215325 | 93 | 137 | 1.7 | 2.6 | 0.00 | 0.00 | 0.00 | 65 | 1009.3 |
| 20260904214821 | 93 | 137 | 1.7 | 7.0 | 0.00 | 0.00 | 0.00 | 64 | 1009.4 |
| 20260904214316 | 94 | 143 | 1.7 | 2.6 | 0.00 | 0.00 | 0.00 | 63 | 1009.1 |
| 20260904213814 | 94 | 136 | 0.9 | 1.7 | 0.00 | 0.00 | 0.00 | 65 | 1009.3 |
| 20260904213309 | 93 | 138 | 1.7 | 4.3 | 0.00 | 0.00 | 0.00 | 64 | 1009.2 |
| 20260904212806 | 94 | 136 | 2.6 | 6.1 | 0.00 | 0.00 | 0.00 | 65 | 1009.3 |
| 20260904212306 | 93 | 134 | 1.7 | 4.3 | 0.00 | 0.00 | 0.00 | 65 | 1009.1 |
| 20260904211801 | 93 | 140 | 1.7 | 5.2 | 0.00 | 0.00 | 0.00 | 63 | 1009.1 |
| 20260904211255 | 94 | 138 | 1.7 | 1.7 | 0.00 | 0.00 | 0.00 | 62 | 1009.1 |
| 20260904210751 | 93 | 138 | 1.7 | 4.3 | 0.00 | 0.00 | 0.00 | 62 | 1009.1 |
| 20260904210245 | 93 | 141 | 0.9 | 5.2 | 0.00 | 0.00 | 0.00 | 64 | 1009.3 |
| 20260904205741 | 93 | 141 | 1.7 | 4.3 | 0.00 | 0.00 | 0.00 | 63 | 1009.2 |
| 20260904205237 | 93 | 152 | 2.6 | 4.3 | 0.00 | 0.00 | 0.00 | 64 | 1009.1 |
| 20260904204734 | 93 | 143 | 0.9 | 6.1 | 0.00 | 0.00 | 0.00 | 64 | 1009.4 |
| 20260904204229 | 94 | 131 | 1.7 | 4.3 | 0.00 | 0.00 | 0.00 | 63 | 1009.5 |
| 20260904203725 | 93 | 138 | 0.9 | 4.3 | 0.00 | 0.00 | 0.00 | 63 | 1009.7 |
| 20260904203221 | 94 | 137 | 1.7 | 4.3 | 0.00 | 0.00 | 0.00 | 63 | 1009.5 |
| 20260904202717 | 93 | 138 | 0.9 | 2.6 | 0.00 | 0.00 | 0.00 | 62 | 1009.9 |
| 20260904202213 | 93 | 138 | 2.6 | 5.2 | 0.00 | 0.00 | 0.00 | 64 | 1009.8 |
| 20260904201708 | 93 | 154 | 2.6 | 4.3 | 0.00 | 0.00 | 0.00 | 62 | 1009.8 |
| 20260904201208 | 94 | 151 | 3.5 | 5.2 | 0.00 | 0.00 | 0.00 | 62 | 1010.0 |
| 20260904200703 | 94 | 138 | 0.9 | 2.6 | 0.00 | 0.00 | 0.00 | 61 | 1010.2 |